Home   Weather   Getholm   Past weeks
Flag for Finland

Past Weather in Getholm, Finland — Yesterday and Last 2 Weeks

Now
50 °F

Sprinkles. Partly cloudy.


Feels Like: 48 °F
Forecast: 44 / 35 °F
Wind: 6 mph from Southwest

Location: Helsinki-Vantaa
Current Time: Oct 23, 2020 at 3:37:06 am
Latest Report: Oct 23, 2020 at 2:50 am
Visibility: N/A
Pressure29.42 "Hg
Humidity: 94%
Dew Point: 48 °F
Location of GetholmLocation

Past Weather in Getholm — Graph

°F

Getholm Temperature Yesterday

Maximum temperature yesterday: 52 °F (at 6:20 pm)
Minimum temperature yesterday: 46 °F (at 12:20 am)
Average temperature yesterday: 49 °F

High & Low Weather Summary for the Past Weeks

 TemperatureHumidityPressure
High59 °F (Oct 8, 3:50 pm)100% (Oct 8, 2:50 am)30.21 "Hg (Oct 8, 2:50 am)
Low27 °F (Oct 17, 6:20 am)58% (Oct 13, 3:50 pm)29.24 "Hg (Oct 22, 5:20 pm)
Average44 °F89%29.86 "Hg
* Reported Oct 8 2:20 am — Oct 23 2:20 am, Getholm. Weather by CustomWeather, © 2020

Note: Actual official high and low records may vary slightly from our data, if they occured in-between our weather recording intervals... More about our weather records

Getholm Weather History for the Previous 24 Hours

Scroll right to see more
 ConditionsComfort  
Time TempWeatherWind HumidityBarometerVisibility
2:20 am
Fri, Oct 23
50 °FScattered showers. Passing clouds.8 mph94%29.42 "HgN/A
1:50 am50 °FPassing clouds.7 mph94%29.42 "HgN/A
1:20 am50 °FPartly cloudy.7 mph94%29.42 "HgN/A
12:50 am50 °FPassing clouds.9 mph94%29.42 "HgN/A
12:20 am50 °FPassing clouds.10 mph94%29.42 "HgN/A
11:50 pm
Thu, Oct 22
48 °FPassing clouds.10 mph100%29.39 "HgN/A
11:20 pm48 °FPassing clouds.12 mph94%29.39 "HgN/A
10:50 pm48 °FPassing clouds.13 mph100%29.36 "HgN/A
10:20 pm50 °FPassing clouds.14 mph94%29.36 "HgN/A
9:50 pm50 °FPassing clouds.16 mph94%29.33 "HgN/A
9:20 pm50 °FPassing clouds.15 mph94%29.30 "HgN/A
8:50 pm52 °FPartly cloudy.15 mph94%29.27 "HgN/A
8:20 pm52 °FDrizzle. Fog.7 mph100%29.27 "Hg2 mi
7:50 pm52 °FLight rain. Fog.7 mph100%29.27 "Hg2 mi
7:20 pm52 °FLight rain. Fog.6 mph100%29.24 "Hg1 mi
6:50 pm52 °FDrizzle. Fog.7 mph100%29.24 "Hg1 mi
6:20 pm52 °FDrizzle. Fog.7 mph100%29.24 "Hg1 mi
5:50 pm50 °FDrizzle. Fog.7 mph100%29.24 "Hg2 mi
5:20 pm50 °FDrizzle. Fog.8 mph100%29.24 "Hg1 mi
4:50 pm50 °FDrizzle. Fog.9 mph100%29.27 "Hg1 mi
4:20 pm50 °FLight rain. Partly sunny.10 mph100%29.27 "Hg4 mi
3:50 pm50 °FDrizzle. Fog.10 mph94%29.27 "Hg3 mi
3:20 pm50 °FDrizzle. Partly sunny.10 mph94%29.30 "Hg3 mi
2:50 pm50 °FDrizzle. Partly sunny.12 mph94%29.30 "Hg3 mi
2:20 pm48 °FDrizzle. Partly sunny.12 mph100%29.33 "Hg4 mi
1:50 pm48 °FLight rain. Partly sunny.12 mph100%29.33 "HgN/A
1:20 pm48 °FLight rain. Partly sunny.12 mph100%29.36 "HgN/A
12:50 pm48 °FLight rain. Partly sunny.12 mph100%29.39 "HgN/A
12:20 pm48 °FLight rain. Partly sunny.10 mph100%29.39 "HgN/A
11:50 am48 °FLight rain. Partly sunny.12 mph94%29.42 "HgN/A
11:20 am48 °FLight rain. Partly sunny.13 mph94%29.42 "HgN/A
10:50 am48 °FLight rain. Partly sunny.12 mph94%29.45 "Hg5 mi
10:20 am48 °FRain. Partly sunny.10 mph94%29.45 "Hg4 mi
9:50 am48 °FRain. Fog.10 mph94%29.47 "Hg2 mi
9:20 am48 °FLight rain. Partly sunny.9 mph100%29.47 "Hg4 mi
8:50 am48 °FLight rain. Fog.13 mph100%29.47 "Hg2 mi
8:20 am48 °FDrizzle. Fog.13 mph100%29.50 "Hg3 mi
7:50 am48 °FPassing clouds.12 mph100%29.50 "Hg2 mi
7:20 am48 °FDrizzle. Fog.13 mph100%29.53 "Hg2 mi
6:50 am48 °FDrizzle. Fog.13 mph100%29.53 "Hg2 mi
6:20 am48 °FDrizzle. Fog.13 mph100%29.56 "Hg1 mi
5:50 am48 °FFog.13 mph100%29.56 "Hg1 mi
5:20 am50 °FFog.10 mph94%29.59 "Hg1 mi
4:50 am48 °FDrizzle. Fog.10 mph100%29.59 "Hg2 mi
4:20 am50 °FFog.10 mph94%29.59 "Hg2 mi
3:50 am48 °FFog.9 mph100%29.62 "Hg2 mi
3:20 am48 °FMostly cloudy.9 mph100%29.62 "Hg2 mi
Weather by CustomWeather, © 2020

See weather overview